| time (UTC) | temp C | wind direction | speed KPH | gust KPH | rain 1hr cm | rain 24hr cm | rain mn cm | humidity % | barometer mb |
| 20260503184655 | 8 | 248 | 0.0 | 0.0 | 0.00 | 0.00 | 0.00 | 74 | 1007.6 |
| 20260503183952 | 8 | 248 | 0.0 | 0.0 | 0.00 | 0.00 | 0.00 | 73 | 1007.5 |
| 20260503183249 | 8 | 248 | 0.0 | 0.0 | 0.00 | 0.00 | 0.00 | 71 | 1007.7 |
| 20260503182559 | 8 | 248 | 0.0 | 0.0 | 0.00 | 0.00 | 0.00 | 71 | 1007.8 |
| 20260503182451 | 8 | 248 | 0.0 | 0.0 | 0.00 | 0.00 | 0.00 | 71 | 1007.8 |
| 20260503181857 | 9 | 248 | 0.0 | 0.0 | 0.00 | 0.00 | 0.00 | 70 | 1007.6 |
| 20260503181344 | 9 | 248 | 0.0 | 0.0 | 0.00 | 0.00 | 0.00 | 69 | 1007.4 |
| 20260503181154 | 9 | 248 | 0.0 | 0.0 | 0.00 | 0.00 | 0.00 | 68 | 1007.4 |
| 20260503180453 | 10 | 248 | 0.0 | 0.0 | 0.00 | 0.00 | 0.00 | 68 | 1007.5 |
| 20260503180253 | 10 | 248 | 0.0 | 0.0 | 0.00 | 0.00 | 0.00 | 67 | 1007.4 |
| 20260503175750 | 10 | 248 | 0.0 | 0.0 | 0.00 | 0.00 | 0.00 | 66 | 1007.3 |
| 20260503175150 | 10 | 248 | 0.0 | 0.0 | 0.00 | 0.00 | 0.00 | 66 | 1007.3 |
| 20260503175048 | 10 | 248 | 0.0 | 1.6 | 0.00 | 0.00 | 0.00 | 66 | 1007.3 |
| 20260503174359 | 11 | 248 | 0.0 | 0.0 | 0.00 | 0.00 | 0.00 | 65 | 1007.3 |
| 20260503174048 | 11 | 248 | 0.0 | 0.0 | 0.00 | 0.00 | 0.00 | 65 | 1007.3 |
| 20260503173656 | 11 | 248 | 0.0 | 0.0 | 0.00 | 0.00 | 0.00 | 64 | 1007.3 |
| 20260503172945 | 11 | 248 | 1.6 | 3.2 | 0.00 | 0.00 | 0.00 | 65 | 1007.2 |
| 20260503172252 | 11 | 248 | 1.6 | 3.2 | 0.00 | 0.00 | 0.00 | 64 | 1007.2 |
| 20260503171853 | 11 | 248 | 0.0 | 1.6 | 0.00 | 0.00 | 0.00 | 64 | 1007.3 |
| 20260503171550 | 11 | 248 | 1.6 | 1.6 | 0.00 | 0.00 | 0.00 | 64 | 1007.3 |
| 20260503170900 | 11 | 248 | 0.0 | 0.0 | 0.00 | 0.00 | 0.00 | 64 | 1007.4 |
| 20260503170749 | 11 | 248 | 0.0 | 0.0 | 0.00 | 0.00 | 0.00 | 64 | 1007.4 |
| 20260503170158 | 11 | 248 | 0.0 | 0.0 | 0.00 | 0.00 | 0.00 | 64 | 1007.4 |
| 20260503160149 | 12 | 248 | 0.0 | 3.2 | 0.00 | 0.00 | 0.00 | 59 | 1007.4 |
| 20260503150953 | 13 | 248 | 1.6 | 3.2 | 0.00 | 0.00 | 0.00 | 57 | 1007.6 |
| 20260503150654 | 13 | 356 | 1.6 | 4.8 | 0.00 | 0.00 | 0.00 | 57 | 1007.5 |
| 20260503150252 | 14 | 241 | 3.2 | 4.8 | 0.00 | 0.00 | 0.00 | 56 | 1007.5 |
| 20260503131059 | 17 | 335 | 3.2 | 11.3 | 0.00 | 0.00 | 0.00 | 51 | 1007.6 |
| 20260503130546 | 17 | 322 | 1.6 | 4.8 | 0.00 | 0.00 | 0.00 | 50 | 1007.6 |
| 20260503130356 | 17 | 244 | 3.2 | 4.8 | 0.00 | 0.00 | 0.00 | 49 | 1007.6 |
| 20260503110451 | 16 | 298 | 4.8 | 12.9 | 0.00 | 0.00 | 0.00 | 55 | 1007.5 |
| 20260503100153 | 15 | 285 | 4.8 | 8.0 | 0.00 | 0.00 | 0.00 | 60 | 1006.8 |
| 20260503090345 | 12 | 217 | 4.8 | 8.0 | 0.00 | 0.00 | 0.00 | 66 | 1006.7 |
| 20260503080954 | 13 | 248 | 0.0 | 0.0 | 0.00 | 0.00 | 0.00 | 62 | 1006.2 |
| 20260503080842 | 13 | 248 | 0.0 | 1.6 | 0.00 | 0.00 | 0.00 | 62 | 1006.2 |
| 20260503080251 | 13 | 248 | 0.0 | 1.6 | 0.00 | 0.00 | 0.00 | 61 | 1006.2 |
| 20260503072753 | 12 | 248 | 1.6 | 4.8 | 0.00 | 0.00 | 0.00 | 64 | 1006.3 |
| 20260503072442 | 12 | 188 | 3.2 | 3.2 | 0.00 | 0.00 | 0.00 | 65 | 1006.2 |
| 20260503072052 | 12 | 248 | 0.0 | 0.0 | 0.00 | 0.00 | 0.00 | 65 | 1006.0 |
| 20260503071704 | 12 | 296 | 3.2 | 4.8 | 0.00 | 0.00 | 0.00 | 66 | 1006.0 |
| 20260503071349 | 12 | 296 | 3.2 | 4.8 | 0.00 | 0.00 | 0.00 | 66 | 1006.0 |
| 20260503070700 | 12 | 255 | 1.6 | 9.7 | 0.00 | 0.00 | 0.00 | 66 | 1005.8 |
| 20260503070248 | 11 | 248 | 3.2 | 4.8 | 0.00 | 0.00 | 0.00 | 65 | 1005.7 |
| 20260503054953 | 10 | 248 | 1.6 | 4.8 | 0.00 | 0.00 | 0.00 | 74 | 1005.4 |
| 20260503054250 | 9 | 248 | 1.6 | 3.2 | 0.00 | 0.00 | 0.00 | 76 | 1005.3 |
| 20260503053600 | 8 | 248 | 1.6 | 3.2 | 0.00 | 0.00 | 0.00 | 76 | 1005.4 |
| 20260503052858 | 8 | 248 | 0.0 | 4.8 | 0.00 | 0.00 | 0.00 | 77 | 1005.4 |
| 20260503052155 | 8 | 248 | 1.6 | 4.8 | 0.00 | 0.00 | 0.00 | 77 | 1005.2 |
| 20260503051453 | 8 | 248 | 3.2 | 4.8 | 0.00 | 0.00 | 0.00 | 78 | 1005.1 |
| 20260503050749 | 8 | 248 | 4.8 | 4.8 | 0.00 | 0.00 | 0.00 | 79 | 1005.0 |
| 20260503050059 | 7 | 251 | 1.6 | 9.7 | 0.00 | 0.00 | 0.00 | 80 | 1005.0 |
| 20260503045357 | 7 | 252 | 3.2 | 3.2 | 0.00 | 0.00 | 0.00 | 80 | 1005.0 |
| 20260503044655 | 7 | 237 | 9.7 | 14.5 | 0.00 | 0.00 | 0.00 | 80 | 1005.1 |
| 20260503043954 | 7 | 248 | 1.6 | 4.8 | 0.00 | 0.00 | 0.00 | 79 | 1005.0 |
| 20260503043251 | 7 | 248 | 0.0 | 3.2 | 0.00 | 0.00 | 0.00 | 79 | 1004.8 |
| 20260503042550 | 7 | 248 | 0.0 | 3.2 | 0.00 | 0.00 | 0.00 | 79 | 1004.7 |
| 20260503041900 | 7 | 248 | 0.0 | 0.0 | 0.00 | 0.00 | 0.00 | 79 | 1004.6 |
| 20260503041157 | 7 | 248 | 0.0 | 1.6 | 0.00 | 0.00 | 0.00 | 79 | 1004.4 |
| 20260503040455 | 7 | 248 | 0.0 | 1.6 | 0.00 | 0.00 | 0.00 | 79 | 1004.8 |
| 20260503035753 | 7 | 248 | 0.0 | 1.6 | 0.00 | 0.00 | 0.00 | 80 | 1005.0 |
| 20260503035050 | 7 | 248 | 0.0 | 3.2 | 0.00 | 0.00 | 0.00 | 81 | 1005.0 |
| 20260503034348 | 6 | 248 | 0.0 | 0.0 | 0.00 | 0.00 | 0.00 | 82 | 1004.8 |
| 20260503033657 | 6 | 248 | 0.0 | 1.6 | 0.00 | 0.00 | 0.00 | 83 | 1004.8 |
| 20260503032956 | 6 | 248 | 0.0 | 0.0 | 0.00 | 0.00 | 0.00 | 83 | 1004.7 |
| 20260503032255 | 5 | 248 | 0.0 | 0.0 | 0.00 | 0.00 | 0.00 | 83 | 1004.9 |
| 20260503031553 | 5 | 248 | 0.0 | 0.0 | 0.00 | 0.00 | 0.00 | 84 | 1004.8 |
| 20260503030852 | 5 | 248 | 0.0 | 1.6 | 0.00 | 0.00 | 0.00 | 83 | 1004.9 |
| 20260503030149 | 5 | 248 | 0.0 | 0.0 | 0.00 | 0.00 | 0.00 | 82 | 1004.8 |
| 20260503025459 | 5 | 248 | 0.0 | 0.0 | 0.00 | 0.00 | 0.00 | 82 | 1004.7 |
| 20260503024758 | 5 | 248 | 0.0 | 0.0 | 0.00 | 0.00 | 0.00 | 82 | 1004.7 |
| 20260503024055 | 4 | 248 | 0.0 | 0.0 | 0.00 | 0.00 | 0.00 | 81 | 1004.7 |
| 20260503023353 | 5 | 248 | 0.0 | 0.0 | 0.00 | 0.00 | 0.00 | 81 | 1004.7 |
| 20260503022650 | 5 | 248 | 0.0 | 0.0 | 0.00 | 0.00 | 0.00 | 80 | 1004.7 |
| 20260503022000 | 5 | 248 | 0.0 | 0.0 | 0.00 | 0.00 | 0.00 | 80 | 1004.8 |
| 20260503021258 | 6 | 248 | 0.0 | 0.0 | 0.00 | 0.00 | 0.00 | 79 | 1004.7 |
| 20260503020556 | 6 | 248 | 0.0 | 0.0 | 0.00 | 0.00 | 0.00 | 78 | 1004.7 |
| 20260503015855 | 6 | 251 | 1.6 | 3.2 | 0.00 | 0.00 | 0.00 | 78 | 1004.8 |
| 20260503015152 | 6 | 248 | 0.0 | 1.6 | 0.00 | 0.00 | 0.00 | 78 | 1004.9 |
| 20260503014451 | 6 | 248 | 0.0 | 0.0 | 0.00 | 0.00 | 0.00 | 78 | 1005.0 |
| 20260503013750 | 6 | 248 | 0.0 | 1.6 | 0.00 | 0.00 | 0.00 | 78 | 1005.0 |
| 20260503013059 | 6 | 248 | 0.0 | 1.6 | 0.00 | 0.00 | 0.00 | 78 | 1004.9 |
| 20260503012356 | 6 | 248 | 0.0 | 0.0 | 0.00 | 0.00 | 0.00 | 77 | 1004.9 |
| 20260503011655 | 6 | 248 | 0.0 | 0.0 | 0.00 | 0.00 | 0.00 | 77 | 1005.0 |
| 20260503010953 | 6 | 279 | 0.0 | 3.2 | 0.00 | 0.00 | 0.00 | 77 | 1004.9 |
| 20260503010250 | 6 | 248 | 0.0 | 1.6 | 0.00 | 0.00 | 0.00 | 76 | 1005.3 |
| 20260503005600 | 6 | 248 | 0.0 | 3.2 | 0.00 | 0.00 | 0.00 | 76 | 1005.0 |
| 20260503004859 | 6 | 249 | 0.0 | 3.2 | 0.00 | 0.00 | 0.00 | 76 | 1005.1 |
| 20260503004158 | 6 | 248 | 0.0 | 1.6 | 0.00 | 0.00 | 0.00 | 76 | 1005.1 |
| 20260503003456 | 6 | 248 | 1.6 | 3.2 | 0.00 | 0.00 | 0.00 | 76 | 1005.1 |
| 20260503002754 | 6 | 257 | 1.6 | 3.2 | 0.00 | 0.00 | 0.00 | 76 | 1005.3 |
| 20260503002050 | 6 | 255 | 1.6 | 3.2 | 0.00 | 0.00 | 0.00 | 75 | 1005.5 |
| 20260503001349 | 6 | 248 | 0.0 | 0.0 | 0.00 | 0.00 | 0.00 | 74 | 1005.5 |
| 20260503000658 | 6 | 248 | 0.0 | 0.0 | 0.00 | 0.00 | 0.00 | 73 | 1005.6 |
| 20260502235957 | 6 | 248 | 1.6 | 3.2 | 0.00 | 0.00 | 0.00 | 72 | 1005.5 |
| 20260502235256 | 6 | 248 | 1.6 | 4.8 | 0.00 | 0.00 | 0.00 | 72 | 1005.6 |
| 20260502234553 | 6 | 248 | 1.6 | 1.6 | 0.00 | 0.00 | 0.00 | 70 | 1005.8 |
| 20260502233851 | 6 | 248 | 0.0 | 1.6 | 0.00 | 0.00 | 0.00 | 68 | 1005.8 |
| 20260502233150 | 7 | 248 | 0.0 | 1.6 | 0.00 | 0.00 | 0.00 | 67 | 1005.8 |
| 20260502232459 | 7 | 248 | 0.0 | 1.6 | 0.00 | 0.00 | 0.00 | 66 | 1005.8 |
| 20260502231757 | 7 | 248 | 1.6 | 3.2 | 0.00 | 0.00 | 0.00 | 65 | 1005.7 |
| 20260502231056 | 7 | 248 | 0.0 | 0.0 | 0.00 | 0.00 | 0.00 | 63 | 1005.8 |
| 20260502230354 | 8 | 248 | 0.0 | 0.0 | 0.00 | 0.00 | 0.00 | 63 | 1005.8 |
| 20260502225653 | 8 | 248 | 3.2 | 4.8 | 0.00 | 0.00 | 0.00 | 63 | 1006.0 |
| 20260502224949 | 8 | 248 | 3.2 | 3.2 | 0.00 | 0.00 | 0.00 | 63 | 1006.0 |
| 20260502224259 | 8 | 248 | 0.0 | 1.6 | 0.00 | 0.00 | 0.00 | 62 | 1006.2 |
| 20260502223557 | 7 | 248 | 0.0 | 1.6 | 0.00 | 0.00 | 0.00 | 62 | 1006.3 |
| 20260502222855 | 7 | 248 | 0.0 | 0.0 | 0.00 | 0.00 | 0.00 | 61 | 1006.5 |
| 20260502222153 | 7 | 248 | 1.6 | 1.6 | 0.00 | 0.00 | 0.00 | 61 | 1006.5 |
| 20260502221450 | 7 | 248 | 0.0 | 1.6 | 0.00 | 0.00 | 0.00 | 61 | 1006.6 |
| 20260502220749 | 7 | 248 | 0.0 | 0.0 | 0.00 | 0.00 | 0.00 | 60 | 1006.6 |
| 20260502220059 | 7 | 248 | 0.0 | 0.0 | 0.00 | 0.00 | 0.00 | 59 | 1006.6 |
| 20260502215357 | 7 | 248 | 0.0 | 0.0 | 0.00 | 0.00 | 0.00 | 58 | 1006.7 |
| 20260502214655 | 7 | 248 | 0.0 | 0.0 | 0.00 | 0.00 | 0.00 | 58 | 1006.7 |
| 20260502213953 | 7 | 248 | 0.0 | 0.0 | 0.00 | 0.00 | 0.00 | 57 | 1006.8 |
| 20260502213252 | 8 | 248 | 0.0 | 0.0 | 0.00 | 0.00 | 0.00 | 57 | 1006.8 |
| 20260502212550 | 8 | 248 | 0.0 | 0.0 | 0.00 | 0.00 | 0.00 | 56 | 1006.8 |
| 20260502211900 | 8 | 248 | 0.0 | 0.0 | 0.00 | 0.00 | 0.00 | 55 | 1006.7 |
| 20260502211158 | 8 | 248 | 0.0 | 0.0 | 0.00 | 0.00 | 0.00 | 54 | 1006.8 |
| 20260502210457 | 8 | 248 | 0.0 | 0.0 | 0.00 | 0.00 | 0.00 | 53 | 1006.8 |
| 20260502205756 | 8 | 248 | 0.0 | 0.0 | 0.00 | 0.00 | 0.00 | 53 | 1007.0 |
| 20260502205055 | 8 | 248 | 0.0 | 0.0 | 0.00 | 0.00 | 0.00 | 52 | 1007.0 |
| 20260502204353 | 8 | 248 | 0.0 | 1.6 | 0.00 | 0.00 | 0.00 | 51 | 1007.0 |
| 20260502203650 | 8 | 248 | 0.0 | 1.6 | 0.00 | 0.00 | 0.00 | 51 | 1007.0 |
| 20260502202949 | 8 | 248 | 0.0 | 0.0 | 0.00 | 0.00 | 0.00 | 51 | 1007.0 |
| 20260502202300 | 8 | 248 | 0.0 | 0.0 | 0.00 | 0.00 | 0.00 | 51 | 1007.1 |
| 20260502201558 | 8 | 248 | 0.0 | 0.0 | 0.00 | 0.00 | 0.00 | 51 | 1007.0 |
| 20260502200854 | 8 | 248 | 0.0 | 0.0 | 0.00 | 0.00 | 0.00 | 51 | 1007.0 |
| 20260502200152 | 9 | 248 | 0.0 | 0.0 | 0.00 | 0.00 | 0.00 | 51 | 1007.1 |
| 20260502195449 | 9 | 248 | 0.0 | 0.0 | 0.00 | 0.00 | 0.00 | 50 | 1007.1 |
| 20260502194759 | 10 | 248 | 0.0 | 0.0 | 0.00 | 0.00 | 0.00 | 50 | 1007.0 |
| 20260502194057 | 10 | 248 | 0.0 | 0.0 | 0.00 | 0.00 | 0.00 | 50 | 1007.0 |
| 20260502193353 | 10 | 248 | 0.0 | 0.0 | 0.00 | 0.00 | 0.00 | 50 | 1006.9 |
| 20260502192652 | 10 | 248 | 0.0 | 0.0 | 0.00 | 0.00 | 0.00 | 50 | 1006.9 |
| 20260502192001 | 10 | 248 | 0.0 | 0.0 | 0.00 | 0.00 | 0.00 | 48 | 1006.8 |
| 20260502191258 | 11 | 248 | 0.0 | 0.0 | 0.00 | 0.00 | 0.00 | 48 | 1006.9 |
| 20260502190555 | 11 | 248 | 0.0 | 0.0 | 0.00 | 0.00 | 0.00 | 48 | 1006.8 |
| 20260502185852 | 11 | 248 | 0.0 | 0.0 | 0.00 | 0.00 | 0.00 | 47 | 1007.0 |
| 20260502185150 | 12 | 248 | 0.0 | 0.0 | 0.00 | 0.00 | 0.00 | 46 | 1006.8 |